Temp
52 45 42 48 52 52 51 48 47 55 58 52 55 57 61 66 65 65 67 67 70 73 78 81 79 81 80 80 80 79 76 73 71 69 70 70 70 72 76 78 78 78 77 76
45 39 51 53 53 49 49 46 44 49 54 52 55 55 60 63 64 66 67 68 70 70 73 75 75 75 78 78 78 79 79 78 77 75 72 71 70 75 77 77 77 77 77 76
41 47 53 50 46 44 46 45 47 45 47 53 52 50 54 61 64 66 66 68 70 71 70 73 75 74 75 76 77 78 79 79 79 79 73 71 74 75 74 74 74 75 75 75
46 53 48 47 43 47 40 51 49 48 44 38 50 42 57 61 61 61 62 64 66 69 70 71 71 72 73 73 76 78 78 79 79 79 74 70 70 70 73 74 75 75 74 74
43 46 45 42 45 48 43 53 48 47 43 43 45 41 51 60 54 60 63 62 65 65 64 65 65 65 67 66 70 71 75 77 78 77 75 71 69 74 77 77 74 71 72 72
48 53 50 49 51 50 51 47 47 46 43 32 44 43 47 54 56 60 59 58 56 56 57 57 57 58 59 61 63 66 70 72 75 74 74 72 70 71 70 71 68 68 68 68
41 43 49 50 43 48 46 41 30 28 29 29 47 43 48 58 56 55 55 54 52 52 51 50 50 50 52 54 58 63 67 63 60 61 58 59 62 61 64 63 63 63 60 58
32 30 41 48 46 40 41 42 34 24 27 35 41 36 46 56 53 52 51 50 48 47 47 46 46 47 47 48 51 54 55 53 52 52 51 52 52 52 52 53 54 54 54 56
33 35 49 50 51 49 41 36 48 35 28 31 40 45 50 49 49 48 48 46 44 45 44 44 44 44 45 45 45 48 49 49 50 48 48 48 49 50 49 50 51 51 52 54
38 30 45 48 50 51 47 49 35 36 25 24 37 40 43 42 46 47 45 42 42 44 43 43 43 43 44 44 45 45 45 45 46 46 47 47 47 48 49 49 49 49 51 52
40 32 38 45 40 39 40 37 38 41 37 30 29 38 49 51 51 48 43 43 44 43 42 42 42 42 43 44 43 43 43 42 42 43 44 44 45 46 46 46 46 46 47 48
44 35 28 32 38 44 47 42 40 32 30 36 35 37 48 50 49 47 40 44 43 42 42 42 42 42 41 41 41 41 41 40 41 42 42 42 42 42 42 42 43 44 44 45
42 31 25 29 35 37 37 42 43 41 41 31 30 36 48 47 45 44 42 42 41 41 40 40 40 40 40 40 39 39 39 39 40 41 40 40 39 39 39 39 41 42 42 42
40 35 30 27 32 32 32 39 38 34 30 34 36 42 41 44 44 43 43 43 42 41 40 39 39 38 38 38 38 38 38 39 39 39 38 36 37 37 38 38 39 39 40 40
35 29 32 34 33 34 33 31 32 32 32 30 38 38 45 46 46 45 44 43 40 38 39 39 37 37 37 37 37 37 37 37 38 37 36 35 36 37 36 36 36 37 37 38
36 27 29 27 31 32 29 33 34 32 32 33 33 33 46 51 50 45 42 40 39 38 38 37 36 35 34 34 34 34 34 34 36 34 33 34 34 34 34 34 35 36 35 36
31 29 27 23 29 29 23 31 35 38 37 34 30 35 38 42 44 43 43 43 41 39 37 35 35 34 33 32 33 32 32 33 32 31 31 31 31 31 31 32 33 32 33 33
28 28 28 25 24 16 34 40 39 37 42 42 40 41 42 41 44 44 45 43 42 40 36 35 34 32 31 31 31 31 31 30 29 28 28 29 29 29 29 30 30 30 31 31
36 30 25 21 22 28 35 37 34 35 38 44 43 43 43 38 38 39 40 41 41 37 36 34 33 31 30 29 29 29 27 27 27 25 25 26 27 27 27 27 27 28 29 29
33 32 27 22 19 17 34 36 40 41 29 44 45 43 38 35 33 43 36 38 36 35 32 29 29 28 28 27 28 26 24 24 23 23 23 24 25 25 24 25 25 26 27 26
23 24 21 23 21 27 38 38 39 26 32 39 41 44 39 36 37 35 33 32 32 30 29 29 27 26 26 25 25 23 22 20 21 21 21 21 23 22 23 23 23 23 23 24
23 21 21 23 19 16 37 34 31 36 38 36 38 40 40 34 32 31 31 29 28 26 26 26 24 22 22 23 23 21 20 19 19 20 19 18 19 21 21 20 20 20 21 20
22 30 27 28 28 37 37 37 39 38 37 39 38 37 39 32 30 30 29 27 27 26 24 23 22 19 19 20 22 19 17 17 17 16 13 15 16 17 19 18 18 18 19 19
30 32 29 28 34 35 37 39 38 37 37 38 37 37 37 34 30 27 26 25 23 22 19 19 17 16 14 15 17 17 14 14 12 13 13 14 15 15 16 18 19 19 18 18
32 30 30 29 33 33 35 35 36 35 33 30 30 32 34 33 28 26 24 22 21 19 17 16 14 14 13 13 12 12 12 13 13 13 14 15 15 15 15 16 17 17 18 18
31 32 29 30 39 36 37 31 30 30 28 29 28 26 27 28 28 27 23 22 20 18 16 15 15 14 12 11 10 9 10 12 13 13 14 15 16 15 16 15 15 15 16 17
MSLP
1013.74 1013.58 1012.44 1012.33 1012.30 1012.11 1011.77 1011.48 1010.99 1010.25 1010.51 1011.00 1010.02 1009.40 1008.71 1008.64 1008.62 1008.57 1008.36 1008.12 1007.96 1007.81 1007.92 1008.20 1008.71 1008.99 1009.67 1010.05 1010.48 1011.06 1012.03 1013.24 1014.06 1014.46 1014.53 1014.84 1015.09 1015.46 1015.50 1015.49 1015.81 1016.21 1016.68 1017.12
1013.56 1012.82 1012.64 1012.63 1012.57 1012.61 1012.32 1012.01 1011.95 1011.92 1011.78 1011.51 1010.18 1009.23 1008.73 1008.22 1008.06 1008.04 1008.13 1007.93 1007.91 1008.14 1008.18 1008.61 1009.22 1009.57 1009.56 1009.96 1010.39 1010.70 1011.26 1011.98 1012.75 1013.44 1014.05 1014.65 1014.98 1015.04 1014.97 1015.08 1015.33 1015.75 1016.14 1016.55
1012.95 1012.62 1012.54 1012.79 1013.07 1012.88 1012.68 1012.39 1012.16 1012.49 1012.61 1011.77 1010.90 1009.18 1008.52 1007.50 1007.73 1007.72 1007.95 1007.97 1007.84 1007.96 1008.30 1008.66 1008.98 1009.61 1009.84 1009.85 1010.17 1010.54 1010.78 1011.28 1011.91 1012.55 1013.66 1014.44 1014.45 1014.62 1014.51 1014.87 1015.19 1015.37 1015.78 1016.16
1012.42 1012.27 1012.50 1012.57 1012.82 1012.99 1012.42 1012.71 1012.85 1012.64 1012.91 1011.89 1011.37 1008.23 1006.39 1006.37 1006.81 1007.58 1007.85 1008.16 1008.22 1008.45 1008.81 1009.23 1009.61 1009.78 1010.11 1010.25 1010.34 1010.30 1010.51 1010.87 1011.41 1011.98 1012.75 1013.58 1013.77 1013.87 1014.08 1014.45 1014.76 1014.99 1015.35 1015.71
1011.81 1011.96 1012.11 1012.35 1012.53 1012.98 1012.70 1012.69 1013.03 1013.15 1012.89 1012.35 1011.06 1010.11 1006.94 1006.57 1006.93 1007.13 1007.54 1008.33 1008.89 1009.44 1010.06 1010.38 1010.72 1010.97 1011.03 1011.19 1011.02 1011.12 1010.79 1010.76 1011.10 1011.64 1012.18 1012.98 1013.59 1013.49 1013.45 1013.78 1014.25 1014.66 1015.05 1015.40
1011.93 1012.30 1012.17 1012.11 1012.51 1012.95 1013.10 1013.40 1013.38 1013.37 1013.24 1011.67 1010.02 1009.38 1006.93 1006.30 1006.67 1007.35 1008.67 1009.69 1010.64 1011.29 1011.66 1012.19 1012.51 1012.63 1012.45 1012.24 1011.96 1011.81 1011.58 1011.37 1011.48 1011.76 1012.13 1012.53 1013.15 1013.53 1013.60 1013.88 1014.61 1015.03 1015.39 1015.82
1012.45 1012.30 1012.49 1012.48 1012.62 1012.97 1013.26 1013.29 1013.30 1013.48 1012.85 1010.27 1009.63 1008.94 1006.98 1006.73 1007.68 1008.78 1009.63 1010.95 1012.03 1012.61 1013.18 1013.68 1013.91 1013.99 1013.98 1013.54 1013.06 1012.42 1012.30 1012.58 1013.10 1013.20 1013.54 1013.60 1013.73 1013.91 1014.39 1014.96 1015.28 1015.52 1016.18 1016.70
1011.99 1011.85 1012.22 1012.14 1011.65 1012.24 1012.87 1012.61 1011.73 1011.75 1011.37 1010.01 1010.39 1008.37 1007.32 1007.63 1008.79 1009.79 1011.19 1012.26 1013.30 1013.99 1014.71 1015.11 1015.42 1015.40 1015.36 1015.16 1014.60 1014.30 1014.09 1014.60 1014.94 1014.94 1014.98 1015.12 1015.28 1015.54 1015.94 1016.26 1016.42 1016.72 1017.23 1017.56
1011.81 1011.01 1011.17 1011.41 1011.73 1011.89 1012.39 1011.98 1011.86 1011.97 1011.84 1010.96 1009.01 1008.41 1008.24 1008.92 1009.75 1010.96 1011.92 1012.86 1014.07 1014.90 1015.70 1016.22 1016.46 1016.48 1016.41 1016.51 1016.34 1016.04 1015.88 1016.00 1016.22 1016.40 1016.48 1016.48 1016.58 1016.68 1017.10 1017.46 1017.63 1017.89 1018.07 1018.34
1012.95 1012.50 1011.40 1011.33 1011.80 1011.48 1011.23 1012.09 1012.28 1012.37 1011.57 1010.48 1008.62 1008.11 1007.70 1008.89 1009.71 1011.25 1012.41 1013.67 1014.84 1015.75 1016.71 1017.06 1017.35 1017.52 1017.50 1017.54 1017.63 1017.55 1017.42 1017.49 1017.62 1017.70 1017.73 1017.80 1017.91 1018.01 1018.21 1018.39 1018.76 1019.10 1019.21 1019.30
1013.47 1013.80 1011.85 1011.65 1011.58 1011.33 1011.64 1011.91 1012.07 1011.60 1011.45 1010.20 1009.00 1007.99 1008.17 1008.34 1009.81 1011.46 1013.14 1014.25 1015.18 1016.12 1017.03 1017.76 1018.14 1018.32 1018.30 1018.42 1018.57 1018.68 1018.61 1018.62 1018.75 1018.87 1018.93 1018.97 1019.03 1019.18 1019.33 1019.58 1019.92 1020.06 1020.20 1020.14
1013.25 1013.62 1013.00 1012.85 1013.02 1012.61 1011.40 1011.54 1011.87 1011.46 1011.17 1010.78 1010.23 1009.10 1009.40 1009.91 1010.90 1012.27 1014.00 1014.90 1016.08 1016.79 1017.60 1018.31 1018.73 1018.88 1018.97 1019.28 1019.43 1019.49 1019.72 1019.69 1019.96 1020.16 1020.06 1020.09 1020.21 1020.30 1020.44 1020.78 1020.98 1021.03 1021.00 1021.13
1013.78 1014.03 1013.75 1013.20 1013.62 1013.45 1012.34 1011.70 1011.89 1012.18 1011.45 1010.96 1010.52 1009.64 1010.33 1010.92 1011.77 1013.25 1014.30 1015.34 1016.39 1017.30 1018.04 1018.55 1018.99 1019.60 1019.94 1020.17 1020.42 1020.53 1020.59 1020.71 1021.03 1021.22 1021.16 1021.21 1021.29 1021.28 1021.45 1021.70 1021.84 1021.92 1021.98 1022.10
1014.98 1014.35 1014.04 1013.50 1013.21 1013.72 1012.56 1012.14 1012.50 1012.86 1011.76 1011.27 1010.65 1010.07 1010.84 1011.17 1011.95 1013.33 1014.47 1015.58 1016.60 1017.45 1018.31 1018.88 1019.49 1020.29 1020.89 1021.10 1021.17 1021.29 1021.49 1021.73 1022.04 1022.12 1022.04 1022.22 1022.41 1022.44 1022.51 1022.64 1022.77 1022.85 1022.96 1023.08
1015.69 1015.09 1014.80 1014.33 1014.43 1013.98 1013.36 1013.51 1013.47 1013.09 1012.98 1012.24 1011.18 1010.87 1010.26 1010.89 1011.88 1013.33 1014.66 1015.90 1016.87 1017.77 1018.57 1019.30 1019.98 1020.69 1021.32 1021.76 1022.03 1022.27 1022.52 1022.70 1022.81 1022.90 1022.92 1023.10 1023.46 1023.59 1023.58 1023.67 1023.77 1023.82 1023.85 1023.90
1015.94 1015.77 1015.65 1015.38 1015.11 1014.57 1013.97 1013.45 1013.11 1013.30 1012.92 1012.37 1012.33 1012.09 1011.96 1011.43 1012.59 1013.61 1014.94 1016.15 1016.89 1017.92 1018.78 1019.79 1020.64 1021.28 1021.80 1022.42 1022.94 1023.24 1023.43 1023.52 1023.53 1023.62 1023.79 1024.03 1024.26 1024.41 1024.48 1024.57 1024.60 1024.56 1024.60 1024.78
1016.45 1016.15 1016.02 1015.77 1015.36 1015.04 1014.16 1012.81 1012.38 1012.10 1012.39 1012.40 1012.28 1012.46 1012.93 1013.00 1013.26 1014.04 1014.98 1016.00 1016.87 1017.96 1019.06 1020.14 1021.03 1021.79 1022.44 1023.02 1023.56 1024.01 1024.31 1024.45 1024.47 1024.54 1024.67 1024.78 1024.89 1025.03 1025.20 1025.29 1025.45 1025.50 1025.41 1025.50
1016.72 1016.59 1016.55 1016.06 1015.95 1014.84 1013.02 1012.54 1012.33 1011.84 1011.44 1011.49 1011.85 1011.84 1012.53 1013.08 1013.78 1014.45 1015.23 1015.99 1016.91 1018.00 1019.32 1020.48 1021.52 1022.48 1023.12 1023.71 1024.14 1024.53 1024.83 1025.07 1025.28 1025.56 1025.84 1025.89 1025.83 1025.88 1025.99 1026.14 1026.22 1026.22 1026.21 1026.38
1017.19 1016.93 1016.88 1016.59 1015.51 1014.14 1012.79 1012.41 1012.40 1011.89 1010.96 1010.90 1011.15 1011.78 1012.62 1013.93 1014.70 1015.06 1015.61 1016.52 1017.39 1018.72 1019.99 1021.21 1022.26 1023.14 1023.87 1024.34 1024.70 1025.08 1025.33 1025.65 1025.87 1026.24 1026.51 1026.62 1026.66 1026.71 1026.79 1026.88 1027.02 1027.04 1027.01 1026.97
1017.81 1017.53 1017.31 1016.88 1015.82 1014.19 1012.78 1013.01 1012.84 1012.45 1011.64 1010.51 1010.82 1011.73 1013.19 1014.54 1015.17 1014.74 1015.97 1017.13 1018.16 1019.55 1020.88 1022.05 1023.09 1023.93 1024.40 1025.16 1025.32 1025.65 1026.14 1026.33 1026.62 1027.03 1027.29 1027.42 1027.50 1027.45 1027.58 1027.73 1027.82 1027.70 1027.51 1027.64
1017.77 1017.54 1017.22 1016.64 1015.87 1014.41 1013.54 1013.53 1013.34 1013.07 1012.78 1012.04 1012.04 1012.37 1013.55 1014.51 1015.28 1016.06 1017.15 1018.34 1019.43 1020.54 1021.75 1022.86 1023.70 1024.20 1024.94 1025.51 1025.70 1026.12 1026.61 1027.06 1027.50 1027.77 1027.94 1028.10 1028.16 1028.24 1028.29 1028.42 1028.43 1028.28 1028.24 1028.36
1017.28 1017.09 1016.79 1016.66 1016.03 1014.97 1014.16 1014.38 1014.23 1013.89 1013.52 1013.55 1013.59 1013.72 1014.12 1015.44 1016.55 1017.47 1018.37 1019.46 1020.54 1021.45 1022.49 1023.43 1024.19 1024.95 1025.61 1025.98 1026.21 1026.69 1027.20 1027.87 1028.16 1028.36 1028.58 1028.79 1028.86 1028.79 1028.86 1028.90 1028.86 1028.81 1028.82 1028.85
1016.98 1016.21 1015.98 1015.94 1014.90 1014.08 1014.20 1014.19 1014.30 1014.52 1014.49 1014.35 1014.68 1014.84 1015.16 1016.36 1017.41 1018.36 1019.38 1020.41 1021.30 1022.29 1023.30 1024.11 1024.72 1025.54 1026.25 1026.68 1026.81 1027.28 1027.99 1028.42 1028.70 1028.94 1029.23 1029.34 1029.40 1029.39 1029.38 1029.33 1029.31 1029.28 1029.27 1029.20
1016.37 1016.23 1015.97 1015.68 1014.26 1014.19 1014.28 1014.37 1014.53 1014.85 1014.98 1015.09 1015.36 1015.55 1016.08 1016.79 1017.99 1019.14 1020.12 1021.06 1021.94 1022.87 1023.78 1024.62 1025.39 1026.06 1026.70 1027.19 1027.48 1027.76 1028.40 1028.73 1029.10 1029.33 1029.48 1029.63 1029.62 1029.74 1029.85 1029.77 1029.74 1029.66 1029.68 1029.65
1016.25 1016.11 1015.35 1014.76 1014.24 1014.59 1014.33 1014.45 1014.53 1014.93 1015.53 1015.93 1016.19 1016.47 1016.66 1017.14 1018.17 1019.11 1020.11 1021.17 1022.26 1023.29 1024.21 1024.97 1025.59 1026.19 1026.84 1027.48 1028.03 1028.47 1028.76 1029.00 1029.17 1029.39 1029.55 1029.61 1029.72 1029.77 1029.95 1030.07 1030.09 1030.10 1030.07 1030.02
1015.51 1014.55 1014.51 1013.24 1013.52 1013.96 1014.01 1014.61 1015.16 1015.57 1015.93 1016.41 1016.98 1017.35 1017.61 1017.95 1018.58 1019.43 1020.43 1021.32 1022.19 1023.17 1024.17 1024.95 1025.62 1026.31 1027.05 1027.71 1028.29 1028.84 1029.07 1029.25 1029.27 1029.41 1029.54 1029.55 1029.63 1029.81 1029.94 1030.09 1030.22 1030.47 1030.37 1030.22
Wind_Speed
13 10 12 14 15 15 6 9 12 11 5 5 18 18 18 16 11 10 8 10 13 13 13 9 7 10 12 13 15 16 16 15 11 9 9 7 7 7 8 9 12 11 10 12
7 16 14 10 12 13 13 11 10 11 3 6 13 15 16 17 16 18 16 16 13 10 11 11 10 10 13 14 15 16 16 16 15 11 8 5 5 8 9 8 10 12 11 11
17 2 16 13 12 14 15 16 12 5 4 9 12 18 20 18 18 17 16 17 15 14 12 9 9 10 10 13 15 14 15 15 15 15 9 7 7 9 8 8 8 9 11 10
16 20 8 16 16 14 16 13 14 13 6 7 4 8 12 14 13 13 15 15 15 13 9 9 8 5 7 7 7 12 14 15 14 15 11 12 11 9 9 9 8 7 10 11
11 10 16 15 14 15 13 12 10 12 11 11 16 9 12 10 11 12 9 4 4 5 6 6 6 7 7 7 4 6 9 12 13 13 14 10 10 8 8 7 7 8 6 8
20 4 13 17 11 11 4 7 6 7 9 13 17 14 11 13 12 7 6 4 3 4 5 6 7 7 6 5 3 5 7 10 9 8 12 10 11 10 5 4 4 3 4 3
15 15 6 5 12 12 13 13 6 6 8 10 2 14 16 4 3 1 3 2 5 6 7 7 9 9 9 9 8 4 2 6 10 8 10 8 3 6 5 3 1 5 5 4
13 11 19 13 13 7 17 17 6 8 9 9 6 10 5 2 5 3 3 5 6 6 6 8 9 9 10 11 11 10 10 9 10 11 11 10 10 7 7 8 6 7 6 5
7 20 9 14 16 15 14 20 15 5 3 3 7 9 4 6 5 5 4 5 5 6 7 8 9 9 10 11 12 11 11 12 12 12 10 11 11 11 10 10 9 7 7 6
6 6 11 16 15 18 16 12 13 8 7 9 10 13 9 9 11 8 7 5 5 6 7 8 9 10 10 11 11 12 13 13 12 12 11 10 11 11 11 10 11 10 9 7
8 3 5 12 16 17 14 11 10 10 10 8 11 11 6 9 10 10 6 5 7 7 7 8 8 9 10 11 12 12 12 13 13 12 12 12 11 12 11 11 11 10 10 10
15 3 9 10 8 16 19 20 17 7 10 10 8 5 1 5 3 7 8 8 8 7 8 7 8 9 10 11 11 12 12 12 12 11 11 12 12 12 12 12 11 10 11 10
9 5 6 4 6 4 10 14 18 17 14 11 11 7 5 7 7 8 10 9 8 8 7 7 8 9 9 10 10 11 11 12 11 10 11 12 12 12 12 11 11 11 10 11
3 5 7 10 4 1 6 12 11 10 9 14 14 15 9 10 10 8 8 9 9 8 7 8 8 8 8 9 9 10 11 10 10 10 11 12 12 11 11 10 10 10 10 10
2 3 5 9 5 6 5 7 9 9 12 8 11 13 6 13 12 10 8 8 8 7 7 6 7 7 7 8 8 9 9 9 9 10 11 11 10 10 10 10 10 10 10 9
4 3 1 1 5 6 8 8 8 9 5 9 9 8 7 5 8 10 11 10 9 8 7 8 7 7 7 7 7 7 8 8 8 10 10 9 9 9 10 9 9 9 10 9
2 3 4 3 2 4 6 13 13 9 7 4 3 3 3 1 6 10 10 9 9 9 9 8 8 7 7 6 5 6 6 7 8 9 9 9 8 9 9 8 8 8 8 8
3 1 1 1 2 5 2 1 4 8 11 13 11 11 14 15 14 8 4 7 8 10 10 9 8 7 7 6 6 6 6 6 7 8 7 7 7 7 7 7 7 7 7 7
3 2 2 3 6 6 7 6 5 6 6 15 14 9 7 6 5 6 4 4 6 8 8 8 6 7 6 6 6 6 6 6 6 7 6 6 6 6 6 6 6 5 5 6
3 2 3 1 4 5 3 4 4 2 6 5 10 10 11 10 9 8 13 9 11 11 10 10 10 8 7 5 5 5 5 5 6 5 5 5 5 5 5 5 4 4 5 5
2 3 8 8 6 6 5 3 1 4 1 3 2 6 13 8 2 9 11 11 11 11 11 10 9 8 7 5 5 5 5 5 4 4 4 4 4 5 4 4 4 4 5 5
6 6 5 6 5 11 4 2 6 3 2 2 1 2 6 6 8 9 10 11 12 12 12 10 9 7 5 5 5 5 4 4 3 3 3 3 3 3 3 4 4 4 4 4
5 6 2 7 5 1 2 6 2 2 3 1 2 3 7 9 6 9 9 10 10 11 10 8 8 8 5 4 4 6 6 5 4 4 3 3 3 3 3 3 3 3 3 2
5 4 4 1 7 12 9 8 8 5 5 2 1 5 8 7 11 10 9 8 8 8 8 7 8 8 7 4 3 3 5 4 3 4 3 3 2 3 2 1 1 1 1 1
2 7 6 9 10 7 12 11 10 7 4 2 1 1 2 6 7 8 8 9 8 8 7 7 6 6 6 6 5 4 4 5 5 4 3 3 2 1 2 1 1 0 1 1
7 10 8 10 5 8 3 2 1 5 6 6 5 2 0 1 5 7 7 8 9 9 9 8 8 7 8 7 6 5 5 5 5 5 4 3 3 2 1 1 1 2 4 4
Wind_Direction
196 213 214 217 219 239 302 256 254 225 155 233 241 243 245 243 218 246 245 234 246 243 255 239 260 216 212 210 209 199 189 195 189 195 202 205 203 205 211 212 209 207 208 204
218 228 224 237 230 233 242 238 227 277 257 240 261 249 255 256 251 248 245 254 239 242 246 242 227 224 221 215 213 209 208 196 194 188 197 187 195 222 217 211 212 210 208 209
220 294 209 227 220 220 226 231 232 243 315 265 277 263 250 250 241 239 238 250 256 252 239 246 223 220 221 218 219 217 213 207 206 204 166 203 198 214 211 215 218 212 213 209
233 231 195 215 224 222 234 220 243 259 257 246 261 282 239 225 219 229 236 237 244 250 254 253 265 224 224 233 251 235 219 214 208 203 186 195 205 200 216 209 213 205 206 216
220 226 208 220 224 224 246 253 212 231 243 272 246 258 248 234 222 236 209 217 260 341 335 307 339 352 332 344 266 259 257 227 213 208 208 190 210 224 220 208 194 211 200 211
229 225 208 223 222 209 224 196 210 235 242 250 241 226 242 227 223 194 141 111 65 30 29 35 36 17 19 7 282 250 233 230 230 208 214 210 210 227 222 169 155 176 165 146
230 214 206 208 179 192 193 179 179 203 204 246 196 226 236 188 125 316 296 95 55 45 37 30 30 32 26 27 25 37 224 65 28 38 42 36 26 42 73 48 59 71 76 61
209 209 213 196 212 185 200 198 205 216 217 245 147 237 224 298 73 106 110 96 68 54 51 47 40 42 39 34 42 48 64 64 49 52 56 55 54 61 63 60 65 71 64 60
214 233 180 193 207 186 193 223 233 314 181 291 203 251 190 171 172 174 148 103 68 61 60 60 56 52 52 52 47 53 64 66 63 63 61 59 61 69 73 67 61 57 58 60
314 260 199 198 208 222 220 195 212 214 235 234 240 234 260 192 192 182 163 123 109 91 79 70 66 64 63 62 63 64 65 66 63 64 61 61 62 64 68 71 71 65 61 56
186 262 195 205 204 210 215 215 239 227 237 248 255 246 2 180 187 186 140 143 121 104 88 79 74 70 68 69 65 65 63 64 64 65 68 68 66 67 66 66 65 65 62 59
218 246 254 245 345 317 246 213 206 215 202 235 287 265 60 76 119 124 152 139 114 104 97 86 77 72 68 64 61 62 61 62 61 62 67 69 70 69 68 66 63 62 66 62
178 218 243 216 222 250 236 231 228 230 266 229 225 225 137 130 136 142 159 141 137 126 113 96 79 67 67 68 66 63 60 61 61 65 67 67 65 66 66 64 61 60 65 65
293 221 242 243 321 258 228 207 231 239 215 235 226 243 185 178 160 157 149 147 142 136 127 113 97 82 73 66 66 66 62 58 60 64 66 63 58 60 62 62 61 61 61 65
169 221 268 267 283 273 225 229 292 240 257 246 253 279 211 192 173 163 156 152 147 149 143 120 109 101 87 78 73 73 68 64 65 68 65 64 60 58 60 60 61 63 61 62
164 185 140 3 303 252 257 236 226 245 250 265 237 265 245 151 165 151 166 172 173 172 154 138 127 112 95 80 69 64 63 61 64 67 65 61 59 58 56 54 54 60 62 58
213 168 170 245 188 290 275 238 222 222 202 161 255 108 24 222 194 184 175 182 183 176 166 156 144 126 113 99 90 77 69 65 64 64 60 58 59 58 53 51 52 52 58 59
169 221 302 94 184 229 286 22 310 260 254 203 203 209 195 193 212 166 204 192 190 168 165 157 148 138 129 121 108 101 89 81 79 71 61 56 62 67 64 65 59 55 53 61
318 187 208 248 225 327 256 217 197 214 248 219 220 190 211 111 103 229 174 190 154 135 136 142 137 131 126 123 116 115 104 95 85 75 67 53 53 62 63 66 62 56 71 72
194 6 256 175 261 241 33 31 359 313 264 174 198 191 171 151 199 223 163 151 132 132 138 144 143 139 130 129 121 116 103 92 79 69 69 60 61 69 72 69 63 55 68 71
173 207 234 232 252 273 330 346 330 190 311 8 307 193 170 193 12 113 132 132 135 140 146 143 146 143 133 138 133 121 116 98 85 80 74 65 62 66 63 66 55 61 68 74
191 187 196 217 243 252 131 148 226 0 25 360 280 251 171 111 119 136 145 147 150 150 152 156 148 143 138 142 145 137 130 108 103 99 92 81 59 60 75 81 75 62 75 78
236 226 226 217 226 4 220 278 321 292 291 252 261 153 142 138 155 158 159 162 163 159 158 154 150 141 142 157 172 163 141 150 139 122 103 97 71 63 63 76 78 86 75 75
223 183 235 270 230 248 257 255 240 225 244 274 202 152 160 156 157 160 161 162 161 158 154 151 151 163 161 164 155 112 136 130 117 136 134 127 130 102 69 75 68 79 87 83
341 156 211 253 265 292 266 239 246 220 220 242 281 334 151 132 161 164 165 165 166 164 157 162 168 167 161 160 150 141 143 149 155 152 156 147 132 143 111 52 30 2 122 330
181 220 214 247 227 218 258 93 13 187 209 201 193 214 259 129 151 163 168 171 169 171 170 173 177 171 165 167 163 161 166 175 173 168 173 171 168 168 164 213 206 216 271 280